This demonstration page uses our WeatherBlox Daily Observations layout. Learn more.

Left ArrowRight Arrow

31.31129, -92.44514

Hourly Observations for August 21, 2016

Temp ( °F °C ) Dew Point ( °F °C ) Humidity (%) Winds ( mph kmh ) Pressure ( in mb ) Visibility ( mi km ) Precip ( " mm )
12:53 am 00:53 Cloudy 78 25.6 76 24.4 93 93 Calm 29.93 1013 9 14 0.00 0.00
1:53 am 01:53 Clear 76 24.4 76 24.4 100 100 SSE 3 6 29.92 1013 7 11 0.00 0.00
2:53 am 02:53 Clear with Mist and Fog 75 23.9 75 23.9 100 100 Calm 29.93 1014 6 10 0.00 0.00
3:53 am 03:53 Clear with Mist and Fog 75 23.9 74 23.3 96 96 Calm 29.93 1014 6 10 0.00 0.00
4:53 am 04:53 Clear with Mist and Fog 74 23.3 74 23.3 100 100 Calm 29.93 1013 6 10 0.00 0.00
5:53 am 05:53 Clear with Mist and Fog 74 23.3 74 23.3 100 100 Calm 29.94 1014 2 3 0.00 0.00
6:00 am 06:00 Mostly Cloudy with Mist and Fog 74 23.3 74 23.3 100 100 Calm 29.94 1014 1 1 0.00 0.00
6:06 am 06:06 Mostly Clear with Mist and Fog 74 23.3 74 23.3 100 100 Calm 29.94 1014 1 2 0.00 0.00
6:12 am 06:12 Clear with Mist and Fog 74 23.3 74 23.3 100 100 Calm 29.94 1014 3 5 0.00 0.00
6:53 am 06:53 Sunny with Mist and Fog 74 23.3 74 23.3 100 100 Calm 29.96 1015 4 6 0.00 0.00
7:53 am 07:53 Sunny with Mist and Fog 76 24.4 76 24.4 100 100 Calm 29.98 1015 4 6 0.00 0.00
8:27 am 08:27 Mostly Cloudy with Mist and Fog 77 25 77 25 100 100 NW 5 7 29.97 1015 5 8 0.00 0.00
8:35 am 08:35 Mostly Cloudy with Mist and Fog 77 25 77 25 100 100 Calm 29.97 1015 4 6 0.00 0.00
8:53 am 08:53 Mostly Cloudy with Mist and Fog 77 25 77 25 100 100 Calm 29.99 1016 5 8 0.00 0.00
9:04 am 09:04 Cloudy with Mist and Fog 77 25 77 25 100 100 Calm 30.00 1016 5 8 0.00 0.00
9:50 am 09:50 Cloudy with Heavy Rain 77 25 75 24 94 94 NW 6 9 30.00 1016 2 3 0.04 1.02
9:53 am 09:53 Cloudy with Heavy Rain 77 25 76 24.4 96 96 WNW 3 6 30.01 1016 1 2 0.10 2.54
9:58 am 09:58 Cloudy with Heavy Rain 76 24.4 75 23.9 97 97 Calm 30.00 1016 0 0 0.14 3.56
10:10 am 10:10 Cloudy with Heavy Rain 76 24.4 75 23.9 97 97 N 14 22 30.00 1016 2 3 0.37 9.40
10:22 am 10:22 Cloudy with Rain 76 24.4 75 23.9 97 97 N 8 13 30.00 1016 3 5 0.45 11.43
10:53 am 10:53 Cloudy with Light Rain 78 25.6 76 24.4 93 93 VRB 3 6 30.02 1017 3 5 0.45 11.43
11:53 am 11:53 Cloudy with Light Rain 79 26.1 77 25 94 94 Calm 30.03 1017 7 11 0.03 0.76
12:53 pm 12:53 Partly Cloudy 85 29.4 78 25.6 80 80 Calm 30.01 1016 10 16 0.00 0.03
1:49 pm 13:49 Mostly Cloudy 86 30 77 25 75 75 VRB 3 6 30.00 1016 10 16 0.00 0.00
1:53 pm 13:53 Partly Cloudy 87 30.6 77 25 72 72 NNE 5 7 30.01 1016 10 16 0.00 0.00
2:02 pm 14:02 Mostly Cloudy 85 29.4 75 23.9 72 72 Calm 30.00 1016 10 16 0.00 0.00
2:53 pm 14:53 Mostly Cloudy 85 29.4 74 23.3 70 70 NW 5 7 30.00 1016 10 16 0.00 0.00
3:03 pm 15:03 Mostly Sunny 86 30 74 23.3 67 67 W 3 6 30.00 1016 10 16 0.00 0.00
3:53 pm 15:53 Partly Cloudy 85 29.4 75 23.9 72 72 Calm 29.99 1016 10 16 0.00 0.00
4:04 pm 16:04 Mostly Cloudy with Nearby Thunderstorms 84 28.9 76 24.4 77 77 Calm 30.00 1016 10 16 0.00 0.00
4:46 pm 16:46 Cloudy with Light Rain 81 27.2 77 25 88 88 SW 13 20 29.97 1015 10 16 0.00 0.03
4:53 pm 16:53 Mostly Cloudy with Rain 79 26.1 76 24.4 90 90 WSW 10 17 29.99 1016 6 10 0.01 0.25
5:35 pm 17:35 Mostly Cloudy with Nearby Thunderstorms 78 25.6 77 25 97 97 Calm 29.97 1015 8 13 0.05 1.27
5:53 pm 17:53 Cloudy with Nearby Thunderstorms 78 25.6 77 25 97 97 Calm 29.99 1016 9 14 0.05 1.27
6:00 pm 18:00 Mostly Cloudy 79 26.1 77 25 94 94 Calm 30.00 1016 9 14 0.00 0.00
6:53 pm 18:53 Partly Cloudy 79 26.1 77 25 94 94 Calm 30.01 1016 9 14 0.00 0.00
7:15 pm 19:15 Mostly Cloudy 79 26.1 77 25 94 94 S 3 6 30.00 1016 10 16 0.00 0.00
7:26 pm 19:26 Partly Cloudy 79 26.1 77 25 94 94 Calm 30.00 1016 10 16 0.00 0.00
7:53 pm 19:53 Mostly Clear 78 25.6 77 25 97 97 Calm 30.01 1016 9 14 0.00 0.00
8:10 pm 20:10 Mostly Clear 77 25 77 25 100 100 Calm 30.00 1016 9 14 0.00 0.00
8:53 pm 20:53 Clear 77 25 76 24.4 96 96 SSE 3 6 30.02 1017 8 13 0.00 0.03
9:53 pm 21:53 Clear 76 24.4 76 24.4 100 100 ESE 5 7 30.03 1017 9 14 0.00 0.00
10:53 pm 22:53 Clear 75 23.9 74 23.3 96 96 E 5 7 30.04 1017 10 16 0.00 0.00
11:53 pm 23:53 Clear 75 23.9 74 23.3 96 96 ESE 5 7 30.04 1017 10 16 0.00 0.00

Powered by AerisWeather